Regional Weather Roundup
Issued by NWS Sterling, VA

Home | Current Version | Previous Version | Graphics & Text | Print | Product List | Glossary On
Versions: 1 2 3 4 5 6 7 8 9 10 11 12 13 14 15 16 17 18 19 20 21 22 23 24 25 26 27 28 29 30 31 32 33 34 35 36 37 38 39 40 41 42 43 44 45 46 47 48 49 50
000
ASUS41 KLWX 302210
RWRLWX

REGIONAL WEATHER ROUNDUP
NATIONAL WEATHER SERVICE BALTIMORE MD/WASHINGTON DC
600 PM EDT SAT AUG 30 2014

Note: "FAIR" indicates few or no clouds below 12,000 feet
with no significant weather and/or obstructions to visibility.
 TC=TEMPERATURE CELSIUS

 * =Non NWS site. Station does not report precipitation (e.g. rain,
    snow, etc.), thunder, or fog.

DCZ001-MDZ009-015-VAZ040>042-051-053>054-302300-
WASHINGTON METRO

CITY           SKY/WX    TMP DP  RH WIND       PRES   REMARKS
WASHINGTON NAT CLOUDY    85  70  60 S7        30.12F
DULLES         PTSUNNY   79  70  74 S8G16     30.12F
ANDREWS AFB    PTSUNNY   79  71  75 SE9       30.13F
QUANTICO       CLOUDY    82  72  71 SE9       30.12F
COLLEGE PARK*  PTSUNNY   82  70  65 SE5       30.12F
LEESBURG*      CLOUDY    82  73  74 S7        30.12F
MANASSAS*      CLOUDY    82  73  74 SE7       30.12S
GAITHERSBURG*  CLOUDY    81  70  69 SE8       30.17F

$$

MDZ006>007-011-014-302300-
BALTIMORE METRO

CITY           SKY/WX    TMP DP  RH WIND       PRES   REMARKS
BWI AIRPORT    PTSUNNY   80  67  64 SE7       30.13F
MD SCIENCE CTR   N/A     81  66  60 MISG      30.13F
MARTIN STATE   PTSUNNY   81  70  69 SE6       30.15F
ANNAPOLIS      PTSUNNY   79  68  69 S10       30.13F
FORT MEADE*    PTSUNNY   79  68  69 SE8       30.15F

$$

MDZ012-015-019>023-302300-
MARYLAND EASTERN SHORE

CITY           SKY/WX    TMP DP  RH WIND       PRES   REMARKS
OCEAN CITY     SUNNY     77  67  71 VRB5      30.18F
SALISBURY      SUNNY     82  65  56 SE9       30.16F
BAY BRIDGE AP*   N/A     81  64  57 S8        30.13F
CAMBRIDGE*     PTSUNNY   81  66  61 S8        30.15S
EASTON*        MOSUNNY   84  68  58 S12       30.18F

$$

MDZ017>025-302300-
SOUTHERN MARYLAND

CITY           SKY/WX    TMP DP  RH WIND       PRES   REMARKS
PATUXENT RIVER MOSUNNY   80  69  69 SE15      30.14F
ST INIGOES     SUNNY     80  68  66 SE8G17    30.13F
LEONARDTOWN*   MOSUNNY   81  68  65 SE9       30.15S

$$

MDZ003>005-302300-
NORTH CENTRAL MARYLAND

CITY           SKY/WX    TMP DP  RH WIND       PRES   REMARKS
FREDERICK*     CLOUDY    81  73  78 S5        30.14F
HAGERSTOWN APT MOSUNNY   80  68  66 SE8       30.11F
WESTMINSTER*   CLOUDY    81  70  69 S9        30.15S

$$

MDZ501>502-302300-
WESTERN MARYLAND

CITY           SKY/WX    TMP DP  RH WIND       PRES   REMARKS
OAKLAND*       PTSUNNY   79  59  50 CALM      30.19S
CUMBERLAND*    PTSUNNY   86  68  54 S20       30.11R

$$

VAZ025>031-302300-
SHENANDOAH VALLEY

CITY           SKY/WX    TMP DP  RH WIND       PRES   REMARKS
WINCHESTER*    SUNNY     79  68  69 SE7       30.11S
STAUNTON*      SUNNY     84  68  59 S14       30.14S

$$

WVZ021-048>050-054>055-302300-
EASTERN WEST VIRGINIA PANHANDLE

CITY           SKY/WX    TMP DP  RH WIND       PRES   REMARKS
MARTINSBURG    MOSUNNY   80  68  66 S10       30.11F
PETERSBURG*    NOT AVBL

$$

VAZ036>039-050-302300-
CENTRAL FOOTHILLS

CITY           SKY/WX    TMP DP  RH WIND       PRES   REMARKS
CHARLOTTESVILL MOSUNNY   83  72  69 SE9       30.11F
ORANGE*        SUNNY     81  70  69 SE6       30.13F

$$

VAZ055>057-302300-
NORTH AND CENTRAL PIEDMONT

CITY           SKY/WX    TMP DP  RH WIND       PRES   REMARKS
FREDERICKSBRG* MOSUNNY   86  71  61 S5        30.10F HX  92
STAFFORD*      PTSUNNY   83  73  72 SE3       30.15F

$$

NCZ024-NYZ072-PAZ021-071-VAZ022-071-302300-
OTHER REGIONAL OBSERVATIONS

CITY           SKY/WX    TMP DP  RH WIND       PRES   REMARKS
NEW YORK CITY  CLOUDY    75  63  66 MISG      30.19F
PHILADELPHIA   PTSUNNY   78  62  57 SE7       30.16F
PITTSBURGH     PTSUNNY   86  65  49 SW12      30.03F
ROANOKE        MOSUNNY   84  68  58 SE17      30.14F
RICHMOND       MOSUNNY   87  71  58 SE13G20   30.12F HX  93
RALEIGH        MOSUNNY   87  70  56 SE8       30.13F HX  92

$$

ANZ530>537-302300-
MARINE OBSERVATIONS

STATION/POSITION TIME  TEMP    WIND        PRES
                       AIR SEA DIR/SP/G
                 (UTC) (F)     (DEG/KT/KT) (MB)
THOMAS PT LIGHT  2200   78 78  170/ 13/ 15 1021.2F
BALT KEY BRIDGE  2200   85     130/ 12/ 13 1020.0F
COVE POINT       2200   78     180/ 17/ 19 1020.6F
LEWISETTA        2200   80 80  150/  9/ 12 1020.1F
SOLOMONS ISLAND  2200      79                N/A
PINEY POINT      2200          160/ 15/ 16   N/A

$$



USA.gov is the U.S. government's official web portal to all federal, state and local government web resources and services.